Weather History for Alexandria, LA

Change the Weather History Date:

Tuesday, January 31, 2012

  Actual Average Record
Temperature  
Mean Temperature 62 °F 49 °F  
Max Temperature 74 °F 60 °F 82 °F (1957)
Min Temperature 50 °F 39 °F 15 °F (1966)
Degree Days  
Heating Degree Days 3 16  
Month to date heating degree days 330 496  
Since 1 July heating degree days 1142 1291  
Growing Degree Days 12 (Base 50)    
Moisture  
Dew Point 58 °F    
Average Humidity 80    
Maximum Humidity 93    
Minimum Humidity 66    
Precipitation  
Precipitation 0.13 in 0.21 in 1.29 in (1951)
Month to date precipitation 5.36 5.22  
Year to date precipitation 5.36 5.22  
Snow  
Snow 0.00 in - 1.00 in (1951)
Month to date snowfall 0.0  
Since 1 July snowfall 0.0  
Snow Depth 0.00 in    
Sea Level Pressure  
Sea Level Pressure 30.17 in    
Wind  
Wind Speed 8 mph (SSE)    
Max Wind Speed 14 mph    
Max Gust Speed 18 mph    
Visibility 9 miles    
Events Rain , Thunderstorm    
T = Trace of Precipitation, MM = Missing Value Source: NWS Daily Summary

Daily Weather History Graph

Daily Weather History Graph

Search for Another Location

Airport:

Trip Planner

Search our weather history database for the weather conditions in past years. The results will help you decide how hot, cold, wet, or windy it might be!

Date:

Astronomy

Jan. 31, 2012 Rise Set
Actual Time 7:03 AM CST 5:44 PM CST
Civil Twilight 6:38 AM CST 6:09 PM CST
Nautical Twilight 6:09 AM CST 6:38 PM CST
Astronomical Twilight 5:40 AM CST 7:07 PM CST
Moon 11:37 AM CST (1/31) 12:50 AM CST (1/31)
Length of Visible Light 11h 31m
Length of Day
10h 40m
First Quarter, 55% of the Moon is Illuminated
Jan 31
First Quarter
Feb 7
Full
Feb 14
Last Quarter
Feb 21
New
Feb 29
First Quarter

Hourly Weather History & Observations

Time (CST) Temp. Dew Point Humidity Pressure Visibility Wind Dir Wind Speed Gust Speed Precip Events Conditions
12:53 AM 51.1 °F 46.0 °F 83% 30.24 in 10.0 mi ESE 3.5 mph - N/A   Clear
1:53 AM 54.0 °F 48.0 °F 80% 30.24 in 10.0 mi SSE 3.5 mph - N/A   Mostly Cloudy
2:53 AM 53.1 °F 50.0 °F 89% 30.22 in 10.0 mi SSE 6.9 mph - 0.00 in   Overcast
3:53 AM 54.0 °F 50.0 °F 86% 30.22 in 10.0 mi SE 3.5 mph - 0.01 in Rain Light Rain
4:53 AM 55.0 °F 51.1 °F 86% 30.21 in 10.0 mi ESE 6.9 mph - 0.00 in   Overcast
5:53 AM 53.6 °F 51.8 °F 94% 30.20 in 10.0 mi SE 5.8 mph - N/A   Overcast
6:53 AM 53.1 °F 51.1 °F 93% 30.21 in 10.0 mi ESE 6.9 mph - N/A   Mostly Cloudy
7:53 AM 55.0 °F 52.0 °F 89% 30.22 in 9.0 mi ESE 3.5 mph - N/A   Overcast
8:53 AM 57.2 °F 53.6 °F 88% 30.22 in 9.0 mi SSE 9.2 mph - N/A   Overcast
9:53 AM 64.0 °F 55.9 °F 75% 30.23 in 10.0 mi SSE 11.5 mph - N/A   Overcast
10:53 AM 66.9 °F 57.9 °F 73% 30.22 in 10.0 mi SE 11.5 mph - N/A   Scattered Clouds
11:53 AM 68.0 °F 57.9 °F 70% 30.21 in 10.0 mi SE 12.7 mph - N/A   Overcast
12:53 PM 70.0 °F 59.0 °F 68% 30.16 in 10.0 mi South 10.4 mph - N/A   Mostly Cloudy
1:21 PM 69.8 °F 60.8 °F 73% 30.14 in 10.0 mi South 9.2 mph - N/A   Overcast
1:33 PM 69.8 °F 60.8 °F 73% 30.13 in 10.0 mi South 12.7 mph - N/A   Overcast
1:53 PM 70.0 °F 60.1 °F 71% 30.14 in 10.0 mi South 11.5 mph - N/A   Overcast
2:53 PM 70.0 °F 60.1 °F 71% 30.12 in 10.0 mi SSE 8.1 mph - 0.00 in   Overcast
3:53 PM 72.0 °F 60.1 °F 66% 30.11 in 10.0 mi SSE 6.9 mph - N/A   Overcast
4:53 PM 72.0 °F 59.0 °F 64% 30.10 in 10.0 mi South 5.8 mph - N/A   Partly Cloudy
5:53 PM 70.0 °F 60.1 °F 71% 30.11 in 10.0 mi South 6.9 mph - N/A   Mostly Cloudy
6:53 PM 68.0 °F 60.1 °F 76% 30.12 in 10.0 mi SSE 4.6 mph - N/A   Overcast
7:53 PM 66.9 °F 62.1 °F 84% 30.14 in 7.0 mi SSE 9.2 mph - 0.00 in Rain Light Rain
8:53 PM 66.0 °F 63.0 °F 90% 30.14 in 8.0 mi SSE 6.9 mph - 0.00 in Rain Light Rain
9:53 PM 66.0 °F 64.0 °F 93% 30.14 in 5.0 mi SSE 4.6 mph - 0.08 in Rain Light Rain
10:53 PM 64.9 °F 63.0 °F 93% 30.14 in 4.0 mi SE 10.4 mph - 0.04 in Rain Light Rain
11:04 PM 64.4 °F 64.4 °F 100% 30.13 in 7.0 mi SSE 5.8 mph - 0.00 in Thunderstorm Overcast
11:12 PM 64.4 °F 64.4 °F 100% 30.12 in 7.0 mi Calm Calm - 0.00 in Thunderstorm Overcast
11:25 PM 64.4 °F 64.4 °F 100% 30.12 in 8.0 mi SSE 3.5 mph - 0.00 in   Overcast
11:39 PM 64.4 °F 64.4 °F 100% 30.12 in 8.0 mi South 3.5 mph - 0.00 in   Mostly Cloudy
11:53 PM 64.0 °F 64.0 °F 100% 30.13 in 7.0 mi SSE 3.5 mph - 0.00 in   Mostly Cloudy